Time,TemperatureF,DewpointF,PressureIn,WindDirection,WindDirectionDegrees,WindSpeedMPH,WindSpeedGustMPH,Humidity,HourlyPrecipIn,Conditions,Clouds,dailyrainin,SoftwareType,DateUTC
2013-04-09 00:03:00,71.0,52.0,-100.00,NE,50,9.0,19.0,54,2.83,,,-99.99,,2013-04-09 04:03:00,
2013-04-09 00:13:00,71.0,52.0,-100.00,NE,43,6.0,19.0,54,2.83,,,-99.99,,2013-04-09 04:13:00,
2013-04-09 00:23:00,70.0,52.0,-100.00,ENE,60,7.0,19.0,55,-99.99,,,-99.99,,2013-04-09 04:23:00,
2013-04-09 00:32:00,70.0,52.0,-100.00,ENE,73,5.0,19.0,56,-99.99,,,-99.99,,2013-04-09 04:32:00,
2013-04-09 00:43:00,70.0,52.0,-100.00,NNE,24,6.0,19.0,56,-99.99,,,-99.99,,2013-04-09 04:43:00,
2013-04-09 00:52:00,70.0,52.0,-100.00,NNE,24,6.0,19.0,56,-99.99,,,-99.99,,2013-04-09 04:52:00,
2013-04-09 01:02:00,70.0,54.0,-100.00,ENE,72,7.0,19.0,58,-99.99,,,-99.99,,2013-04-09 05:02:00,
2013-04-09 01:12:00,70.0,54.0,-100.00,SE,124,5.0,19.0,58,-99.99,,,-99.99,,2013-04-09 05:12:00,
2013-04-09 01:22:00,70.0,54.0,-100.00,NE,40,6.0,19.0,58,-99.99,,,-99.99,,2013-04-09 05:22:00,
2013-04-09 01:32:00,69.0,54.0,-100.00,East,81,4.0,19.0,59,-99.99,,,-99.99,,2013-04-09 05:32:00,
2013-04-09 01:43:00,69.0,54.0,-100.00,ENE,60,4.0,19.0,59,-99.99,,,-99.99,,2013-04-09 05:43:00,
2013-04-09 01:52:00,69.0,54.0,-100.00,ENE,66,3.0,19.0,60,-99.99,,,-99.99,,2013-04-09 05:52:00,
2013-04-09 02:02:00,69.0,54.0,-100.00,ENE,62,4.0,19.0,60,-99.99,,,-99.99,,2013-04-09 06:02:00,
2013-04-09 02:12:00,69.0,54.0,-100.00,East,80,4.0,19.0,62,-99.99,,,-99.99,,2013-04-09 06:12:00,
2013-04-09 02:22:00,69.0,54.0,-100.00,NE,43,5.0,19.0,62,-99.99,,,-99.99,,2013-04-09 06:22:00,
2013-04-09 02:32:00,69.0,54.0,-100.00,ENE,59,3.0,19.0,62,-99.99,,,-99.99,,2013-04-09 06:32:00,
2013-04-09 02:42:00,69.0,55.0,-100.00,NE,53,4.0,19.0,63,-99.99,,,-99.99,,2013-04-09 06:42:00,
2013-04-09 02:52:00,68.0,54.0,-100.00,East,79,3.0,19.0,63,0.00,,,-99.99,,2013-04-09 06:52:00,
2013-04-09 03:02:00,68.0,54.0,-100.00,ENE,74,2.0,19.0,64,-99.99,,,-99.99,,2013-04-09 07:02:00,
2013-04-09 03:13:00,68.0,54.0,-100.00,ENE,62,2.0,19.0,64,-99.99,,,-99.99,,2013-04-09 07:13:00,
2013-04-09 03:22:00,67.0,55.0,-100.00,NE,48,4.0,19.0,66,-99.99,,,-99.99,,2013-04-09 07:22:00,
2013-04-09 03:32:00,67.0,55.0,-100.00,NE,52,3.0,19.0,67,-99.99,,,-99.99,,2013-04-09 07:32:00,
2013-04-09 03:42:00,67.0,55.0,-100.00,NE,45,2.0,2.0,67,-99.99,,,-99.99,,2013-04-09 07:42:00,
2013-04-09 03:52:00,64.0,52.0,-100.00,East,84,1.0,2.0,67,-99.99,,,-99.99,,2013-04-09 07:52:00,
2013-04-09 04:03:00,61.0,50.0,-100.00,SE,132,0.0,2.0,69,-99.99,,,-99.99,,2013-04-09 08:03:00,
2013-04-09 04:13:00,61.0,52.0,-100.00,East,88,0.0,2.0,73,-99.99,,,-99.99,,2013-04-09 08:13:00,
2013-04-09 04:22:00,60.0,50.0,-100.00,WSW,248,0.0,2.0,73,-99.99,,,-99.99,,2013-04-09 08:22:00,
2013-04-09 04:32:00,60.0,50.0,-100.00,SSW,207,0.0,2.0,73,-99.99,,,-99.99,,2013-04-09 08:32:00,
2013-04-09 04:42:00,59.0,50.0,-100.00,SE,131,0.0,2.0,73,-99.99,,,-99.99,,2013-04-09 08:42:00,
2013-04-09 04:52:00,60.0,50.0,-100.00,SSW,197,1.0,2.0,75,-99.99,,,-99.99,,2013-04-09 08:52:00,
2013-04-09 05:02:00,58.0,50.0,-100.00,SE,142,1.0,2.0,75,-99.99,,,-99.99,,2013-04-09 09:02:00,
2013-04-09 05:12:00,58.0,50.0,-100.00,SE,134,1.0,2.0,76,-99.99,,,-99.99,,2013-04-09 09:12:00,
2013-04-09 05:22:00,58.0,50.0,-100.00,SE,134,1.0,2.0,76,-99.99,,,-99.99,,2013-04-09 09:22:00,
2013-04-09 05:33:00,59.0,50.0,-100.00,SE,125,1.0,2.0,76,-99.99,,,-99.99,,2013-04-09 09:33:00,
2013-04-09 05:43:00,59.0,50.0,-100.00,ENE,59,1.0,2.0,76,-99.99,,,-99.99,,2013-04-09 09:43:00,
2013-04-09 05:52:00,59.0,50.0,-100.00,ESE,120,1.0,2.0,76,0.00,,,-99.99,,2013-04-09 09:52:00,
2013-04-09 06:04:00,59.0,50.0,-100.00,East,96,1.0,2.0,76,0.00,,,-99.99,,2013-04-09 10:04:00,
2013-04-09 06:13:00,59.0,50.0,-100.00,SE,127,1.0,2.0,77,0.00,,,-99.99,,2013-04-09 10:13:00,
2013-04-09 06:33:00,58.0,50.0,-100.00,ESE,107,1.0,2.0,76,0.00,,,-99.99,,2013-04-09 10:33:00,
2013-04-09 06:43:00,58.0,50.0,-100.00,SE,127,0.0,2.0,76,-99.99,,,-99.99,,2013-04-09 10:43:00,
2013-04-09 06:52:00,57.0,48.0,-100.00,SSW,192,0.0,2.0,77,-99.99,,,-99.99,,2013-04-09 10:52:00,
2013-04-09 07:02:00,56.0,48.0,-100.00,SE,136,1.0,2.0,78,-99.99,,,-99.99,,2013-04-09 11:02:00,
2013-04-09 07:12:00,54.0,46.0,-100.00,SW,225,0.0,2.0,80,-99.99,,,-99.99,,2013-04-09 11:12:00,
2013-04-09 07:22:00,54.0,46.0,-100.00,SE,138,0.0,2.0,81,-99.99,,,-99.99,,2013-04-09 11:22:00,
2013-04-09 07:32:00,54.0,48.0,-100.00,SSE,152,0.0,2.0,81,-99.99,,,-99.99,,2013-04-09 11:32:00,
2013-04-09 07:42:00,54.0,46.0,-100.00,WSW,240,1.0,2.0,80,-99.99,,,-99.99,,2013-04-09 11:42:00,
2013-04-09 07:52:00,55.0,48.0,-100.00,SSW,206,0.0,2.0,80,-99.99,,,-99.99,,2013-04-09 11:52:00,
2013-04-09 08:02:00,54.0,46.0,-100.00,SW,231,1.0,2.0,80,-99.99,,,-99.99,,2013-04-09 12:02:00,
2013-04-09 08:12:00,53.0,46.0,-100.00,WSW,254,0.0,2.0,81,-99.99,,,-99.99,,2013-04-09 12:12:00,
2013-04-09 08:22:00,55.0,48.0,-100.00,SW,232,1.0,2.0,78,-99.99,,,-99.99,,2013-04-09 12:22:00,
2013-04-09 08:32:00,55.0,48.0,-100.00,SW,234,0.0,2.0,78,-99.99,,,-99.99,,2013-04-09 12:32:00,
2013-04-09 08:42:00,56.0,48.0,-100.00,SW,216,1.0,2.0,77,-99.99,,,-99.99,,2013-04-09 12:42:00,
2013-04-09 08:53:00,58.0,48.0,-100.00,East,94,0.0,2.0,75,-99.99,,,-99.99,,2013-04-09 12:53:00,
2013-04-09 09:03:00,59.0,50.0,-100.00,NW,316,0.0,2.0,73,0.00,,,-99.99,,2013-04-09 13:03:00,
2013-04-09 09:13:00,60.0,50.0,-100.00,North,9,0.0,2.0,72,-99.99,,,-99.99,,2013-04-09 13:13:00,
2013-04-09 09:23:00,61.0,50.0,-100.00,NNE,21,0.0,2.0,71,-99.99,,,-99.99,,2013-04-09 13:23:00,
2013-04-09 09:33:00,62.0,50.0,-100.00,WNW,292,1.0,2.0,66,-99.99,,,-99.99,,2013-04-09 13:33:00,
2013-04-09 09:43:00,63.0,48.0,-100.00,West,261,1.0,2.0,62,-99.99,,,-99.99,,2013-04-09 13:43:00,
2013-04-09 09:52:00,63.0,48.0,-100.00,West,266,1.0,2.0,60,-99.99,,,-99.99,,2013-04-09 13:52:00,
2013-04-09 10:03:00,65.0,48.0,-100.00,SW,234,1.0,2.0,55,-99.99,,,-99.99,,2013-04-09 14:03:00,
2013-04-09 10:12:00,65.0,48.0,-100.00,NW,319,2.0,2.0,56,-99.99,,,-99.99,,2013-04-09 14:12:00,
2013-04-09 10:22:00,66.0,48.0,-100.00,North,4,1.0,2.0,54,-99.99,,,-99.99,,2013-04-09 14:22:00,
2013-04-09 10:33:00,67.0,46.0,-100.00,South,183,1.0,2.0,51,-99.99,,,-99.99,,2013-04-09 14:33:00,
2013-04-09 10:43:00,67.0,48.0,-100.00,North,11,3.0,4.0,53,-99.99,,,-99.99,,2013-04-09 14:43:00,
2013-04-09 10:52:00,68.0,48.0,-100.00,NNW,331,2.0,4.0,51,-99.99,,,-99.99,,2013-04-09 14:52:00,
2013-04-09 11:02:00,69.0,48.0,-100.00,ESE,105,1.0,4.0,51,-99.99,,,-99.99,,2013-04-09 15:02:00,
2013-04-09 11:13:00,70.0,50.0,-100.00,North,4,2.0,4.0,53,-99.99,,,-99.99,,2013-04-09 15:13:00,
2013-04-09 11:23:00,70.0,52.0,-100.00,South,169,1.0,4.0,53,-99.99,,,-99.99,,2013-04-09 15:23:00,
2013-04-09 11:34:00,70.0,52.0,-100.00,SW,220,2.0,4.0,53,-99.99,,,-99.99,,2013-04-09 15:34:00,
2013-04-09 11:43:00,71.0,52.0,-100.00,West,262,3.0,6.0,51,-99.99,,,-99.99,,2013-04-09 15:43:00,
2013-04-09 11:53:00,71.0,52.0,-100.00,WNW,282,3.0,6.0,51,-99.99,,,-99.99,,2013-04-09 15:53:00,
2013-04-09 12:03:00,72.0,52.0,-100.00,WNW,295,2.0,6.0,49,-99.99,,,-99.99,,2013-04-09 16:03:00,
2013-04-09 12:13:00,73.0,52.0,-100.00,NNW,345,2.0,6.0,49,0.00,,,-99.99,,2013-04-09 16:13:00,
2013-04-09 12:23:00,74.0,52.0,-100.00,WSW,247,1.0,6.0,47,-99.99,,,-99.99,,2013-04-09 16:23:00,
2013-04-09 12:33:00,74.0,54.0,-100.00,NNE,29,2.0,6.0,50,-99.99,,,-99.99,,2013-04-09 16:33:00,
2013-04-09 12:42:00,73.0,54.0,-100.00,WNW,300,2.0,6.0,50,-99.99,,,-99.99,,2013-04-09 16:42:00,
2013-04-09 12:53:00,76.0,55.0,-100.00,NE,50,2.0,6.0,49,-99.99,,,-99.99,,2013-04-09 16:53:00,
2013-04-09 13:02:00,75.0,52.0,-100.00,NNW,338,2.0,6.0,46,-99.99,,,-99.99,,2013-04-09 17:02:00,
2013-04-09 13:13:00,75.0,52.0,-100.00,NW,313,8.0,14.0,46,-99.99,,,-99.99,,2013-04-09 17:13:00,
2013-04-09 13:23:00,76.0,52.0,-100.00,NW,304,4.0,14.0,45,-99.99,,,-99.99,,2013-04-09 17:23:00,
2013-04-09 13:32:00,76.0,52.0,-100.00,NNE,18,5.0,14.0,45,-99.99,,,-99.99,,2013-04-09 17:32:00,
2013-04-09 13:43:00,77.0,52.0,-100.00,NNW,331,6.0,14.0,44,-99.99,,,-99.99,,2013-04-09 17:43:00,
2013-04-09 13:53:00,77.0,52.0,-100.00,NNW,348,6.0,14.0,44,-99.99,,,-99.99,,2013-04-09 17:53:00,
2013-04-09 14:02:00,77.0,52.0,-100.00,North,1,6.0,14.0,44,-99.99,,,-99.99,,2013-04-09 18:02:00,
2013-04-09 14:13:00,78.0,52.0,-100.00,NNW,336,7.0,14.0,40,-99.99,,,-99.99,,2013-04-09 18:13:00,
2013-04-09 14:23:00,78.0,52.0,-100.00,ENE,57,7.0,14.0,41,-99.99,,,-99.99,,2013-04-09 18:23:00,
2013-04-09 14:33:00,78.0,52.0,-100.00,NNE,22,7.0,14.0,41,-99.99,,,-99.99,,2013-04-09 18:33:00,
2013-04-09 14:43:00,78.0,52.0,-100.00,NNE,16,6.0,14.0,41,-99.99,,,-99.99,,2013-04-09 18:43:00,
2013-04-09 14:52:00,78.0,52.0,-100.00,North,351,6.0,14.0,41,-99.99,,,-99.99,,2013-04-09 18:52:00,
2013-04-09 15:03:00,80.0,54.0,-100.00,NE,50,6.0,14.0,42,-99.99,,,-99.99,,2013-04-09 19:03:00,
2013-04-09 15:12:00,80.0,54.0,-100.00,NE,50,6.0,14.0,42,-99.99,,,-99.99,,2013-04-09 19:12:00,
2013-04-09 15:23:00,78.0,52.0,-100.00,ENE,57,5.0,14.0,41,-99.99,,,-99.99,,2013-04-09 19:23:00,
2013-04-09 15:32:00,79.0,50.0,-100.00,NNE,18,7.0,14.0,38,31.18,,,-99.99,,2013-04-09 19:32:00,
2013-04-09 15:42:00,79.0,50.0,-100.00,NNE,18,7.0,14.0,38,31.18,,,-99.99,,2013-04-09 19:42:00,
2013-04-09 15:52:00,80.0,50.0,-100.00,NE,38,8.0,14.0,37,-99.99,,,-99.99,,2013-04-09 19:52:00,
2013-04-09 16:03:00,81.0,50.0,-100.00,NNE,31,8.0,14.0,36,-99.99,,,-99.99,,2013-04-09 20:03:00,
2013-04-09 16:12:00,80.0,50.0,-100.00,NNE,25,7.0,14.0,37,-99.99,,,-99.99,,2013-04-09 20:12:00,
2013-04-09 16:23:00,81.0,52.0,-100.00,North,358,9.0,14.0,37,-99.99,,,-99.99,,2013-04-09 20:23:00,
2013-04-09 16:34:00,81.0,50.0,-100.00,NE,35,8.0,14.0,36,-99.99,,,-99.99,,2013-04-09 20:34:00,
2013-04-09 16:43:00,81.0,50.0,-100.00,NNE,15,9.0,14.0,36,-99.99,,,-99.99,,2013-04-09 20:43:00,
2013-04-09 16:52:00,81.0,50.0,-100.00,NNE,21,6.0,14.0,36,-99.99,,,-99.99,,2013-04-09 20:52:00,
2013-04-09 17:03:00,81.0,50.0,-100.00,NNW,343,9.0,14.0,36,-99.99,,,-99.99,,2013-04-09 21:03:00,
2013-04-09 17:14:00,82.0,52.0,-100.00,North,1,9.0,14.0,36,-99.99,,,-99.99,,2013-04-09 21:14:00,
2013-04-09 17:23:00,82.0,52.0,-100.00,North,1,9.0,14.0,36,-99.99,,,-99.99,,2013-04-09 21:23:00,
2013-04-09 17:33:00,81.0,50.0,-100.00,North,0,6.0,14.0,34,-99.99,,,-99.99,,2013-04-09 21:33:00,
2013-04-09 17:42:00,81.0,50.0,-100.00,North,0,6.0,14.0,34,-99.99,,,-99.99,,2013-04-09 21:42:00,
2013-04-09 17:52:00,82.0,52.0,-100.00,North,4,9.0,14.0,36,-99.99,,,-99.99,,2013-04-09 21:52:00,
2013-04-09 18:03:00,82.0,52.0,-100.00,ENE,62,9.0,14.0,37,-99.99,,,-99.99,,2013-04-09 22:03:00,
2013-04-09 18:13:00,81.0,52.0,-100.00,NNE,32,8.0,14.0,37,-99.99,,,-99.99,,2013-04-09 22:13:00,
2013-04-09 18:23:00,82.0,50.0,-100.00,North,7,6.0,14.0,34,-99.99,,,-99.99,,2013-04-09 22:23:00,
2013-04-09 18:33:00,83.0,50.0,-100.00,NNW,347,6.0,14.0,34,-99.99,,,-99.99,,2013-04-09 22:33:00,
2013-04-09 18:42:00,83.0,50.0,-100.00,North,0,6.0,14.0,33,0.00,,,-99.99,,2013-04-09 22:42:00,
2013-04-09 18:53:00,83.0,50.0,-100.00,NNW,336,6.0,14.0,33,-99.99,,,-99.99,,2013-04-09 22:53:00,
2013-04-09 19:03:00,82.0,50.0,-100.00,ENE,67,9.0,14.0,34,-99.99,,,-99.99,,2013-04-09 23:03:00,
2013-04-09 19:13:00,82.0,50.0,-100.00,NNE,21,8.0,14.0,34,-99.99,,,-99.99,,2013-04-09 23:13:00,
2013-04-09 19:23:00,84.0,54.0,-100.00,NNW,336,8.0,14.0,37,-99.99,,,-99.99,,2013-04-09 23:23:00,
2013-04-09 19:32:00,81.0,50.0,-100.00,NNE,28,9.0,14.0,36,-99.99,,,-99.99,,2013-04-09 23:32:00,
2013-04-09 19:42:00,81.0,50.0,-100.00,NNW,345,7.0,14.0,36,-99.99,,,-99.99,,2013-04-09 23:42:00,
2013-04-09 19:52:00,83.0,54.0,-100.00,ENE,60,7.0,14.0,37,-99.99,,,-99.99,,2013-04-09 23:52:00,
2013-04-09 20:03:00,80.0,50.0,-100.00,SE,129,7.0,14.0,36,-99.99,,,-99.99,,2013-04-10 00:03:00,
2013-04-09 20:13:00,80.0,50.0,-100.00,SE,129,7.0,14.0,36,-99.99,,,-99.99,,2013-04-10 00:13:00,
2013-04-09 20:23:00,80.0,50.0,-100.00,ENE,76,4.0,14.0,37,-99.99,,,-99.99,,2013-04-10 00:23:00,
2013-04-09 20:33:00,79.0,52.0,-100.00,ENE,59,3.0,14.0,40,-99.99,,,-99.99,,2013-04-10 00:33:00,
2013-04-09 20:42:00,78.0,52.0,-100.00,ENE,69,2.0,14.0,41,-99.99,,,-99.99,,2013-04-10 00:42:00,
2013-04-09 20:52:00,78.0,50.0,-100.00,East,88,4.0,14.0,40,-99.99,,,-99.99,,2013-04-10 00:52:00,
2013-04-09 21:02:00,77.0,50.0,-100.00,East,83,2.0,14.0,41,-99.99,,,-99.99,,2013-04-10 01:02:00,
2013-04-09 21:12:00,77.0,50.0,-100.00,East,90,2.0,14.0,40,-99.99,,,-99.99,,2013-04-10 01:12:00,
2013-04-09 21:23:00,77.0,50.0,-100.00,ENE,77,2.0,14.0,41,-99.99,,,-99.99,,2013-04-10 01:23:00,
2013-04-09 21:32:00,79.0,52.0,-100.00,East,79,3.0,14.0,41,-99.99,,,-99.99,,2013-04-10 01:32:00,
2013-04-09 21:43:00,76.0,50.0,-100.00,ENE,69,3.0,14.0,41,-99.99,,,-99.99,,2013-04-10 01:43:00,
2013-04-09 21:52:00,76.0,50.0,-100.00,NE,56,3.0,14.0,41,0.00,,,-99.99,,2013-04-10 01:52:00,
2013-04-09 22:02:00,75.0,50.0,-100.00,ENE,72,4.0,14.0,41,2.83,,,-99.99,,2013-04-10 02:02:00,
2013-04-09 22:13:00,75.0,50.0,-100.00,ENE,72,4.0,14.0,42,0.00,,,-99.99,,2013-04-10 02:13:00,
2013-04-09 22:22:00,75.0,50.0,-100.00,ENE,59,3.0,14.0,42,0.00,,,-99.99,,2013-04-10 02:22:00,
2013-04-09 22:33:00,74.0,48.0,-100.00,NNE,32,2.0,14.0,42,0.00,,,-99.99,,2013-04-10 02:33:00,
2013-04-09 22:43:00,74.0,48.0,-100.00,NE,43,2.0,14.0,42,-99.99,,,-99.99,,2013-04-10 02:43:00,
2013-04-09 22:52:00,74.0,50.0,-100.00,NNE,25,2.0,14.0,44,-99.99,,,-99.99,,2013-04-10 02:52:00,
2013-04-09 23:03:00,74.0,50.0,-100.00,ENE,57,3.0,14.0,44,-99.99,,,-99.99,,2013-04-10 03:03:00,
2013-04-09 23:12:00,74.0,50.0,-100.00,East,83,3.0,14.0,45,-99.99,,,-99.99,,2013-04-10 03:12:00,
2013-04-09 23:22:00,73.0,50.0,-100.00,NE,45,4.0,14.0,45,-99.99,,,-99.99,,2013-04-10 03:22:00,
2013-04-09 23:33:00,73.0,50.0,-100.00,ESE,114,4.0,14.0,45,-99.99,,,-99.99,,2013-04-10 03:33:00,
2013-04-09 23:43:00,74.0,50.0,-100.00,East,81,5.0,14.0,45,-99.99,,,-99.99,,2013-04-10 03:43:00,
2013-04-09 23:52:00,73.0,50.0,-100.00,ENE,60,4.0,14.0,46,-99.99,,,-99.99,,2013-04-10 03:52:00,